| time (UTC) | temp C | wind direction | speed KPH | gust KPH | rain 1hr cm | rain 24hr cm | rain mn cm | humidity % | barometer mb |
| 20260504223024 | 23 | 165 | 16.1 | 24.1 | 0.00 | 0.00 | 0.00 | 78 | 1011.2 |
| 20260504221523 | 23 | 145 | 14.5 | 27.4 | 0.00 | 0.00 | 0.00 | 78 | 1011.3 |
| 20260504220037 | 24 | 162 | 16.1 | 27.4 | 0.00 | 0.00 | 0.00 | 77 | 1011.4 |
| 20260504214525 | 24 | 122 | 16.1 | 24.1 | 0.00 | 0.00 | 0.00 | 78 | 1011.5 |
| 20260504213018 | 24 | 137 | 14.5 | 24.1 | 0.00 | 0.00 | 0.00 | 75 | 1011.6 |
| 20260504211525 | 24 | 165 | 14.5 | 24.1 | 0.00 | 0.00 | 0.00 | 77 | 1011.7 |
| 20260504210016 | 24 | 229 | 11.3 | 24.1 | 0.00 | 0.00 | 0.00 | 76 | 1011.9 |
| 20260504204544 | 24 | 174 | 14.5 | 22.5 | 0.00 | 0.00 | 0.00 | 77 | 1012.1 |
| 20260504203043 | 24 | 120 | 12.9 | 25.7 | 0.00 | 0.00 | 0.00 | 75 | 1012.2 |
| 20260504201550 | 24 | 161 | 14.5 | 24.1 | 0.00 | 0.00 | 0.00 | 75 | 1012.5 |
| 20260504200038 | 25 | 134 | 11.3 | 25.7 | 0.00 | 0.00 | 0.00 | 73 | 1012.6 |
| 20260504194537 | 25 | 165 | 14.5 | 20.9 | 0.00 | 0.00 | 0.00 | 73 | 1012.6 |
| 20260504193033 | 25 | 179 | 11.3 | 24.1 | 0.00 | 0.00 | 0.00 | 73 | 1013.1 |
| 20260504191503 | 25 | 213 | 14.5 | 25.7 | 0.00 | 0.00 | 0.00 | 72 | 1013.2 |
| 20260504190002 | 25 | 176 | 14.5 | 25.7 | 0.00 | 0.00 | 0.00 | 72 | 1013.3 |
| 20260504184534 | 25 | 171 | 12.9 | 25.7 | 0.00 | 0.00 | 0.00 | 69 | 1013.2 |
| 20260504183028 | 25 | 186 | 8.0 | 22.5 | 0.00 | 0.00 | 0.00 | 71 | 1013.3 |
| 20260504181531 | 24 | 171 | 14.5 | 22.5 | 0.00 | 0.00 | 0.00 | 73 | 1013.9 |
| 20260504180023 | 24 | 143 | 14.5 | 25.7 | 0.00 | 0.00 | 0.00 | 71 | 1014.0 |
| 20260504174520 | 24 | 163 | 12.9 | 27.4 | 0.00 | 0.00 | 0.00 | 73 | 1014.0 |
| 20260504173019 | 24 | 154 | 12.9 | 25.7 | 0.00 | 0.00 | 0.00 | 72 | 1014.4 |
| 20260504171547 | 24 | 169 | 12.9 | 24.1 | 0.00 | 0.00 | 0.00 | 71 | 1014.4 |
| 20260504100110 | 18 | 131 | 1.6 | 4.8 | 0.00 | 0.00 | 0.00 | 80 | 1015.1 |
| 20260504081550 | 18 | 141 | 1.6 | 3.2 | 0.00 | 0.00 | 0.00 | 79 | 1015.7 |
| 20260504044553 | 18 | 142 | 3.2 | 6.4 | 0.00 | 0.00 | 0.00 | 74 | 1017.8 |
| 20260504043047 | 19 | 154 | 4.8 | 8.0 | 0.00 | 0.00 | 0.00 | 72 | 1017.8 |
| 20260504041546 | 19 | 127 | 3.2 | 4.8 | 0.00 | 0.00 | 0.00 | 73 | 1017.7 |
| 20260504040046 | 20 | 160 | 3.2 | 6.4 | 0.00 | 0.00 | 0.00 | 71 | 1017.7 |
| 20260504034542 | 20 | 145 | 4.8 | 8.0 | 0.00 | 0.00 | 0.00 | 69 | 1017.8 |
| 20260504033048 | 20 | 150 | 4.8 | 8.0 | 0.00 | 0.00 | 0.00 | 69 | 1017.8 |
| 20260504031537 | 20 | 146 | 6.4 | 9.7 | 0.00 | 0.00 | 0.00 | 68 | 1017.7 |
| 20260504030036 | 20 | 157 | 6.4 | 9.7 | 0.00 | 0.00 | 0.00 | 70 | 1017.6 |
| 20260504024544 | 20 | 144 | 6.4 | 9.7 | 0.00 | 0.00 | 0.00 | 68 | 1017.8 |
| 20260504023032 | 20 | 150 | 4.8 | 9.7 | 0.00 | 0.00 | 0.00 | 70 | 1017.7 |
| 20260504021530 | 20 | 161 | 6.4 | 9.7 | 0.00 | 0.00 | 0.00 | 66 | 1017.7 |
| 20260504020030 | 21 | 142 | 6.4 | 9.7 | 0.00 | 0.00 | 0.00 | 65 | 1017.6 |
| 20260504014525 | 21 | 156 | 6.4 | 11.3 | 0.00 | 0.00 | 0.00 | 66 | 1017.6 |
| 20260504013022 | 21 | 181 | 6.4 | 12.9 | 0.00 | 0.00 | 0.00 | 64 | 1017.6 |
| 20260504011523 | 21 | 156 | 9.7 | 14.5 | 0.00 | 0.00 | 0.00 | 65 | 1017.4 |
| 20260504010021 | 21 | 163 | 8.0 | 12.9 | 0.00 | 0.00 | 0.00 | 62 | 1017.5 |
| 20260504004537 | 22 | 167 | 8.0 | 14.5 | 0.00 | 0.00 | 0.00 | 60 | 1017.4 |
| 20260504003018 | 22 | 143 | 9.7 | 16.1 | 0.00 | 0.00 | 0.00 | 61 | 1017.4 |
| 20260504001517 | 22 | 160 | 11.3 | 17.7 | 0.00 | 0.00 | 0.00 | 63 | 1017.4 |
| 20260504000017 | 22 | 165 | 9.7 | 16.1 | 0.00 | 0.00 | 0.00 | 63 | 1017.4 |
| 20260503234513 | 22 | 138 | 11.3 | 17.7 | 0.00 | 0.00 | 0.00 | 61 | 1017.6 |
| 20260503233009 | 22 | 138 | 14.5 | 17.7 | 0.00 | 0.00 | 0.00 | 60 | 1017.7 |
| 20260503231509 | 23 | 136 | 9.7 | 16.1 | 0.00 | 0.00 | 0.00 | 60 | 1017.8 |
| 20260503230008 | 23 | 120 | 12.9 | 17.7 | 0.00 | 0.00 | 0.00 | 59 | 1017.8 |
| 20260503224505 | 23 | 122 | 8.0 | 17.7 | 0.00 | 0.00 | 0.00 | 60 | 1017.9 |